| time (UTC) | temp C | wind direction | speed KPH | gust KPH | rain 1hr cm | rain 24hr cm | rain mn cm | humidity % | barometer mb |
| 20260508185502 | 14 | 272 | 4.8 | 0.0 | 0.00 | 0.00 | 0.00 | 86 | 1006.0 |
| 20260508175502 | 14 | 272 | 4.8 | 0.0 | 0.00 | 0.00 | 0.00 | 84 | 1007.0 |
| 20260508165502 | 16 | 335 | 4.8 | 0.0 | 0.00 | 0.00 | 0.00 | 71 | 1007.0 |
| 20260508155502 | 17 | 1 | 1.6 | 0.0 | 0.00 | 0.00 | 0.00 | 66 | 1008.0 |
| 20260508145502 | 18 | 152 | 6.4 | 0.0 | 0.00 | 0.00 | 0.00 | 64 | 1008.0 |
| 20260508135501 | 20 | 132 | 4.8 | 0.0 | 0.00 | 0.00 | 0.00 | 59 | 1008.0 |
| 20260508125501 | 20 | 122 | 3.2 | 0.0 | 0.00 | 0.00 | 0.00 | 51 | 1008.0 |
| 20260508115502 | 20 | 57 | 3.2 | 0.0 | 0.00 | 0.00 | 0.00 | 58 | 1008.0 |
| 20260508105503 | 18 | 190 | 4.8 | 0.0 | 0.00 | 0.00 | 0.00 | 64 | 1009.0 |
| 20260508085502 | 19 | 150 | 9.7 | 0.0 | 0.00 | 0.00 | 0.00 | 66 | 1010.0 |
| 20260508075502 | 20 | 145 | 8.0 | 0.0 | 0.00 | 0.00 | 0.00 | 59 | 1010.0 |
| 20260508065502 | 21 | 134 | 4.8 | 0.0 | 0.00 | 0.00 | 0.00 | 53 | 1009.0 |
| 20260508055502 | 21 | 98 | 8.0 | 0.0 | 0.00 | 0.00 | 0.00 | 55 | 1010.0 |
| 20260508045502 | 20 | 114 | 8.0 | 0.0 | 0.00 | 0.00 | 0.00 | 59 | 1010.0 |
| 20260508035502 | 18 | 110 | 8.0 | 0.0 | 0.00 | 0.00 | 0.00 | 62 | 1010.0 |
| 20260508025502 | 17 | 95 | 9.7 | 0.0 | 0.00 | 0.00 | 0.00 | 67 | 1010.0 |
| 20260508015501 | 16 | 81 | 8.0 | 0.0 | 0.00 | 0.00 | 0.00 | 72 | 1011.0 |
| 20260508005502 | 15 | 73 | 9.7 | 0.0 | 0.00 | 0.00 | 0.00 | 72 | 1011.0 |
| 20260507235502 | 15 | 81 | 9.7 | 0.0 | 0.00 | 0.00 | 0.00 | 73 | 1010.0 |
| 20260507225502 | 15 | 65 | 6.4 | 0.0 | 0.00 | 0.00 | 0.00 | 72 | 1010.0 |
| 20260507215502 | 16 | 143 | 4.8 | 0.0 | 0.00 | 0.00 | 0.00 | 70 | 1010.0 |
| 20260507205502 | 16 | 139 | 8.0 | 0.0 | 0.00 | 0.00 | 0.00 | 66 | 1010.0 |
| 20260507195502 | 17 | 146 | 9.7 | 0.0 | 0.00 | 0.00 | 0.00 | 64 | 1010.0 |